USA 75

导读 | 星芒AI

USA 75 是一颗由美国国家安全局(NSA)运营的军事通信卫星,于 1997 年 12 月 10 日由美国空军使用宇宙神 II 运载火箭从卡纳维拉尔角发射升空。该卫星属于“莱克星顿”(Leidos)系列,主要用于提供安全的战术和战略通信支持,服务于美军全球行动。USA 75 工作在超高频(UHF)和极高频(SHF)波段,具备抗干扰能力和高安全性,是美国军事通信网络的重要组成部分。

基本信息
目录编号:
21805
目录名称:
USA 75
国际标识:
1991-080B
轨道中心:
EARTH
卫星名称:
USA 75
卫星全名:
--
卫星状态:
在轨 (已飞行12393 天)
发射日期:
1991-11-24 UTC
国别 :
美国 (US)
星等 :
--
轨道信息
数据来源 国际轨道数据 AOE轨道数据
星历时间 2025-10-28T15:06:53+0800
1天前
查看轨道信息
2025-10-28T21:00:00+0800
18小时前
查看轨道信息
半长轴 42471.034km 42470.977km
偏心率 0.0003052 0.0003064
轨道倾角 14.131° 14.130°
近地点辐角 137.819° 139.261°
升交点赤经 347.152° 347.150°
平近点角 211.981° 298.107°
近地点 36079.936km 36079.828km
远地点 36105.862km 36105.856km
周期 1451.774分钟 1451.771分钟
每日圈数 0.99189 0.991892
详细信息
使用方式:
暂无
2D轨道图
3D轨道图
轨道高度分析图
轨道倾角分析图
轨道综合分析图
查看轨道综合分析图